QPF
0.00 0.00 0.00 0.00 0.00 0.00 0.00 0.01 0.07 0.14 0.03 0.03 0.05 0.08 0.18 0.16 0.02 0.00 0.00 0.00 0.00 0.00 0.00 0.00 0.00 0.00 0.00 0.00 0.00 0.00 0.00 0.00
0.00 0.00 0.00 0.00 0.00 0.00 0.00 0.00 0.01 0.05 0.02 0.01 0.03 0.10 0.16 0.18 0.11 0.00 0.00 0.00 0.00 0.00 0.00 0.00 0.00 0.00 0.00 0.01 0.01 0.00 0.00 0.00
0.00 0.00 0.00 0.00 0.00 0.00 0.00 0.00 0.00 0.00 0.01 0.00 0.00 0.03 0.10 0.14 0.15 0.01 0.00 0.00 0.00 0.00 0.00 0.00 0.00 0.00 0.00 0.00 0.01 0.01 0.01 0.00
0.00 0.00 0.00 0.00 0.00 0.00 0.00 0.00 0.00 0.00 0.00 0.00 0.03 0.14 0.13 0.10 0.15 0.04 0.00 0.00 0.00 0.00 0.00 0.01 0.00 0.01 0.02 0.01 0.00 0.00 0.00 0.00
0.00 0.00 0.00 0.00 0.00 0.00 0.00 0.00 0.00 0.00 0.00 0.00 0.00 0.04 0.08 0.04 0.03 0.03 0.01 0.00 0.01 0.01 0.00 0.01 0.03 0.02 0.01 0.01 0.00 0.00 0.00 0.00
0.00 0.00 0.00 0.00 0.00 0.00 0.00 0.00 0.00 0.00 0.00 0.00 0.00 0.00 0.01 0.04 0.03 0.02 0.00 0.00 0.00 0.01 0.01 0.01 0.01 0.01 0.01 0.03 0.04 0.02 0.01 0.00
0.00 0.00 0.00 0.00 0.00 0.00 0.00 0.00 0.00 0.00 0.00 0.00 0.00 0.00 0.00 0.00 0.00 0.00 0.00 0.00 0.00 0.00 0.00 0.00 0.00 0.00 0.00 0.02 0.05 0.03 0.02 0.01
0.00 0.00 0.00 0.00 0.00 0.00 0.00 0.00 0.00 0.00 0.00 0.00 0.00 0.00 0.00 0.00 0.00 0.00 0.00 0.00 0.00 0.00 0.00 0.00 0.00 0.00 0.00 0.00 0.02 0.03 0.03 0.03
0.00 0.00 0.00 0.00 0.00 0.00 0.00 0.00 0.00 0.00 0.00 0.00 0.00 0.00 0.00 0.00 0.00 0.00 0.00 0.00 0.00 0.00 0.00 0.00 0.00 0.00 0.00 0.00 0.00 0.00 0.01 0.01
0.00 0.00 0.00 0.00 0.00 0.00 0.00 0.00 0.00 0.00 0.00 0.00 0.00 0.00 0.00 0.00 0.00 0.00 0.00 0.00 0.00 0.00 0.00 0.00 0.00 0.00 0.00 0.00 0.00 0.01 0.02 0.02
0.00 0.00 0.00 0.00 0.00 0.00 0.00 0.00 0.00 0.00 0.00 0.00 0.00 0.00 0.00 0.00 0.00 0.00 0.00 0.00 0.00 0.00 0.00 0.00 0.00 0.00 0.00 0.00 0.00 0.02 0.05 0.04
0.00 0.00 0.00 0.00 0.00 0.00 0.00 0.00 0.02 0.02 0.00 0.00 0.00 0.00 0.00 0.00 0.00 0.00 0.00 0.00 0.00 0.00 0.00 0.00 0.04 0.07 0.08 0.07 0.05 0.04 0.05 0.04
0.00 0.00 0.00 0.00 0.00 0.00 0.00 0.00 0.00 0.05 0.07 0.01 0.00 0.00 0.00 0.00 0.00 0.00 0.00 0.00 0.00 0.00 0.00 0.01 0.03 0.05 0.09 0.10 0.07 0.04 0.05 0.07
0.00 0.00 0.00 0.00 0.00 0.00 0.00 0.00 0.00 0.00 0.01 0.01 0.00 0.00 0.00 0.00 0.00 0.00 0.00 0.00 0.00 0.00 0.00 0.00 0.00 0.00 0.02 0.08 0.12 0.13 0.13 0.07
0.00 0.00 0.00 0.00 0.00 0.00 0.00 0.00 0.00 0.00 0.00 0.00 0.00 0.00 0.00 0.00 0.00 0.00 0.00 0.00 0.00 0.00 0.00 0.00 0.01 0.01 0.00 0.00 0.01 0.02 0.02 0.02
0.00 0.00 0.00 0.00 0.00 0.00 0.00 0.00 0.00 0.00 0.00 0.00 0.00 0.01 0.00 0.00 0.00 0.00 0.00 0.00 0.00 0.00 0.00 0.01 0.03 0.03 0.03 0.04 0.03 0.01 0.01 0.02
0.00 0.00 0.00 0.00 0.00 0.00 0.00 0.00 0.00 0.00 0.00 0.00 0.00 0.00 0.00 0.00 0.00 0.00 0.00 0.00 0.00 0.01 0.01 0.00 0.01 0.01 0.02 0.02 0.02 0.01 0.01 0.02
0.00 0.00 0.00 0.00 0.00 0.00 0.00 0.00 0.00 0.00 0.00 0.00 0.00 0.00 0.00 0.00 0.01 0.01 0.01 0.01 0.00 0.01 0.02 0.02 0.01 0.01 0.04 0.03 0.02 0.01 0.02 0.02
0.00 0.00 0.00 0.00 0.00 0.00 0.00 0.00 0.00 0.00 0.00 0.00 0.00 0.00 0.00 0.00 0.01 0.00 0.01 0.01 0.01 0.01 0.01 0.03 0.04 0.05 0.06 0.03 0.02 0.01 0.01 0.02
MSLP
1011.77 1012.16 1012.58 1012.98 1013.22 1013.44 1013.77 1014.08 1014.42 1014.77 1015.21 1015.69 1016.08 1016.37 1016.94 1017.56 1018.06 1018.54 1019.07 1019.26 1020.17 1020.50 1021.12 1021.83 1022.48 1023.34 1023.89 1024.32 1024.36 1024.53 1024.67 1024.87
1011.61 1012.10 1012.53 1013.00 1013.19 1013.38 1013.66 1014.00 1014.31 1014.70 1015.26 1015.73 1016.20 1016.55 1017.00 1017.99 1018.46 1018.88 1019.15 1019.54 1020.53 1020.28 1020.98 1022.42 1022.88 1022.99 1023.45 1024.21 1024.27 1024.37 1024.75 1025.19
1011.26 1011.79 1012.21 1012.84 1013.06 1013.32 1013.57 1013.87 1014.14 1014.38 1014.80 1015.22 1016.04 1016.59 1017.21 1017.76 1018.49 1019.05 1019.31 1019.63 1020.59 1020.47 1021.65 1022.08 1022.32 1022.79 1023.31 1024.00 1023.85 1024.32 1024.51 1024.94
1010.59 1011.23 1011.73 1012.33 1012.76 1013.03 1013.23 1013.62 1013.93 1014.28 1014.58 1015.24 1016.29 1016.86 1017.53 1018.02 1018.54 1019.02 1019.21 1020.10 1020.05 1020.84 1021.14 1021.66 1021.76 1022.30 1022.81 1023.35 1023.39 1023.42 1024.03 1024.58
1009.77 1010.60 1011.06 1011.58 1012.12 1012.54 1012.75 1013.34 1013.76 1014.18 1014.55 1014.88 1015.59 1016.22 1016.79 1017.29 1017.93 1018.80 1019.59 1020.09 1020.14 1020.11 1020.70 1021.16 1021.54 1022.07 1022.43 1022.52 1022.63 1022.95 1023.49 1024.05
1008.41 1009.41 1010.04 1010.80 1011.57 1012.10 1012.38 1012.93 1013.38 1013.81 1014.25 1014.59 1015.25 1015.91 1016.17 1016.82 1017.80 1018.70 1019.16 1019.34 1019.56 1019.97 1020.43 1020.83 1021.18 1021.55 1021.74 1021.79 1022.14 1022.54 1023.06 1023.41
1007.54 1008.73 1009.62 1010.29 1011.17 1011.69 1011.98 1012.40 1012.87 1013.46 1013.90 1014.31 1014.71 1015.33 1015.67 1016.48 1017.28 1018.01 1018.40 1019.01 1019.35 1019.53 1019.77 1020.16 1020.56 1020.95 1020.98 1021.30 1021.37 1021.89 1022.35 1022.67
1006.51 1007.75 1008.63 1009.46 1010.22 1010.97 1011.62 1011.93 1012.38 1012.96 1013.42 1013.97 1014.31 1014.70 1015.19 1015.72 1016.45 1016.98 1017.72 1018.18 1018.45 1018.61 1019.09 1019.67 1019.86 1020.12 1020.57 1020.67 1020.88 1021.30 1021.71 1022.09
1005.31 1005.99 1007.23 1008.21 1009.10 1010.04 1010.87 1011.43 1011.79 1012.34 1012.79 1013.21 1013.79 1014.17 1014.66 1015.22 1015.81 1016.31 1016.77 1017.28 1017.66 1018.23 1018.71 1018.90 1019.36 1019.73 1019.73 1019.73 1020.02 1020.47 1020.98 1021.07
1004.29 1005.26 1005.98 1007.04 1007.87 1008.74 1009.62 1010.37 1010.85 1011.48 1012.07 1012.70 1013.15 1013.67 1014.13 1014.57 1015.20 1015.71 1016.16 1016.71 1017.18 1017.54 1017.71 1017.97 1018.18 1018.37 1018.66 1019.05 1019.44 1019.68 1020.30 1020.39
1003.52 1004.58 1004.87 1005.98 1006.94 1007.92 1008.91 1009.43 1009.72 1010.43 1011.11 1011.70 1012.25 1012.71 1013.30 1013.84 1014.36 1014.66 1015.08 1015.63 1016.13 1016.38 1016.59 1016.89 1017.23 1017.47 1017.85 1018.40 1018.77 1019.18 1019.59 1019.69
1002.71 1003.90 1004.84 1004.99 1006.00 1007.00 1007.92 1008.59 1009.07 1009.50 1010.04 1010.66 1011.24 1011.74 1012.38 1013.04 1013.37 1013.72 1014.06 1014.64 1014.89 1015.14 1015.53 1016.05 1016.49 1016.93 1017.31 1017.78 1018.14 1018.47 1018.71 1019.00
1001.95 1002.74 1003.78 1004.44 1005.04 1005.80 1006.38 1007.35 1007.93 1008.18 1008.90 1009.57 1010.21 1010.93 1011.38 1011.69 1011.70 1011.92 1012.68 1013.18 1013.70 1014.24 1014.84 1015.29 1015.71 1016.04 1016.28 1016.80 1017.25 1017.49 1017.71 1018.17
1001.42 1002.12 1002.66 1003.31 1004.07 1004.79 1005.37 1006.14 1006.49 1007.49 1008.42 1008.78 1009.25 1009.79 1010.47 1010.62 1010.98 1011.55 1012.01 1012.50 1012.94 1013.58 1013.99 1014.18 1014.38 1014.91 1015.50 1016.08 1016.61 1016.88 1016.65 1016.98
1000.76 1001.27 1001.66 1002.20 1002.78 1003.58 1004.27 1004.85 1005.70 1006.30 1007.16 1007.86 1008.26 1008.59 1008.87 1009.42 1010.13 1010.69 1011.32 1011.80 1012.29 1012.62 1013.12 1013.51 1013.96 1014.49 1015.04 1015.54 1015.95 1016.37 1016.79 1016.98
999.84 1000.17 1000.66 1001.28 1001.94 1002.46 1003.12 1003.86 1004.72 1005.20 1005.75 1006.53 1006.77 1007.29 1008.07 1008.70 1009.20 1009.71 1010.23 1010.78 1011.20 1011.68 1012.10 1012.58 1012.98 1013.74 1014.37 1014.83 1015.19 1015.82 1016.24 1016.64
998.86 999.28 999.69 1000.12 1000.58 1001.12 1001.95 1002.52 1003.33 1004.27 1004.75 1004.85 1005.78 1006.62 1007.09 1007.38 1007.99 1008.61 1009.06 1009.56 1010.05 1010.60 1010.93 1011.54 1012.21 1012.92 1013.39 1013.78 1014.30 1014.93 1015.54 1016.17
998.33 998.21 998.44 998.86 999.27 999.93 1000.30 1000.91 1002.25 1003.03 1003.50 1004.09 1004.71 1005.42 1006.11 1006.55 1007.04 1007.61 1008.09 1008.61 1009.29 1009.74 1010.28 1011.00 1011.47 1012.10 1012.52 1013.11 1013.87 1014.36 1015.17 1016.13
997.59 997.58 997.49 997.55 998.03 998.50 999.34 1000.34 1000.84 1001.86 1002.58 1003.17 1003.93 1004.58 1005.25 1006.06 1006.62 1006.84 1007.47 1008.06 1008.63 1009.35 1010.01 1010.62 1011.17 1011.66 1012.18 1012.91 1013.70 1014.51 1015.43 1016.28
Thickness
5628 5623 5619 5615 5612 5609 5605 5600 5595 5591 5590 5590 5589 5589 5585 5585 5582 5580 5580 5583 5579 5580 5579 5575 5573 5569 5566 5564 5566 5565 5566 5567
5628 5623 5619 5614 5611 5608 5603 5598 5594 5593 5591 5589 5589 5589 5585 5579 5578 5578 5579 5580 5573 5579 5576 5568 5564 5566 5564 5560 5562 5563 5561 5559
5629 5624 5621 5614 5611 5607 5604 5599 5595 5595 5595 5595 5590 5587 5584 5581 5577 5576 5577 5577 5570 5574 5566 5565 5565 5564 5561 5557 5561 5558 5560 5559
5631 5627 5623 5618 5613 5611 5608 5604 5599 5597 5595 5591 5583 5582 5579 5576 5574 5574 5575 5569 5571 5567 5567 5565 5565 5563 5561 5558 5560 5564 5560 5558
5636 5631 5628 5623 5618 5614 5613 5608 5603 5599 5596 5593 5588 5584 5582 5581 5578 5573 5568 5565 5567 5567 5565 5565 5563 5560 5559 5561 5563 5563 5562 5560
5645 5638 5635 5629 5621 5617 5615 5611 5607 5604 5600 5598 5591 5583 5584 5580 5575 5569 5568 5567 5567 5566 5564 5562 5560 5559 5560 5563 5563 5563 5561 5561
5651 5643 5637 5631 5623 5619 5616 5614 5611 5606 5601 5599 5596 5590 5590 5583 5579 5573 5570 5567 5567 5568 5567 5566 5562 5561 5562 5561 5565 5564 5562 5561
5656 5647 5640 5635 5629 5623 5617 5616 5612 5608 5604 5600 5599 5598 5595 5591 5586 5583 5578 5573 5571 5573 5572 5568 5568 5568 5565 5566 5565 5565 5563 5561
5662 5661 5651 5643 5636 5629 5622 5618 5616 5612 5609 5607 5603 5600 5597 5592 5587 5584 5581 5577 5577 5572 5571 5572 5569 5567 5571 5571 5570 5570 5565 5567
5666 5662 5659 5650 5645 5638 5630 5625 5622 5617 5612 5609 5605 5601 5598 5596 5591 5588 5584 5581 5578 5576 5577 5577 5575 5575 5574 5569 5570 5569 5564 5565
5670 5662 5665 5655 5649 5642 5634 5631 5630 5623 5617 5613 5609 5606 5602 5599 5596 5593 5590 5586 5584 5585 5585 5583 5579 5578 5575 5571 5569 5565 5562 5563
5672 5665 5660 5662 5653 5645 5639 5635 5631 5628 5623 5618 5614 5610 5605 5599 5597 5595 5593 5590 5591 5590 5588 5583 5579 5576 5572 5567 5565 5564 5561 5558
5672 5669 5663 5659 5657 5652 5647 5640 5637 5635 5629 5622 5618 5612 5609 5607 5606 5604 5598 5595 5591 5588 5583 5580 5577 5574 5570 5568 5564 5562 5559 5555
5669 5666 5665 5663 5659 5654 5651 5645 5643 5636 5628 5625 5621 5618 5612 5611 5608 5602 5598 5593 5589 5584 5582 5580 5579 5576 5570 5565 5560 5555 5553 5553
5669 5668 5668 5665 5664 5658 5653 5649 5643 5639 5632 5627 5625 5622 5619 5615 5610 5604 5598 5594 5589 5585 5581 5575 5572 5569 5565 5561 5557 5554 5549 5547
5670 5670 5668 5665 5662 5660 5655 5650 5644 5641 5638 5631 5629 5625 5620 5615 5610 5604 5599 5594 5590 5585 5581 5575 5571 5566 5563 5560 5555 5550 5547 5543
5672 5672 5670 5667 5665 5663 5658 5653 5649 5642 5639 5639 5631 5623 5619 5617 5612 5606 5601 5596 5592 5588 5585 5580 5574 5567 5562 5559 5555 5549 5544 5538
5664 5671 5672 5671 5670 5665 5663 5660 5648 5643 5640 5635 5629 5623 5618 5615 5612 5606 5603 5598 5592 5589 5584 5577 5572 5567 5561 5555 5548 5544 5537 5527
5663 5666 5670 5675 5674 5671 5665 5657 5652 5643 5638 5633 5625 5620 5615 5609 5606 5606 5601 5595 5591 5583 5576 5571 5565 5561 5553 5547 5540 5532 5523 5514